User: anonymous   Login
Location: Unspecified
(0.0000°N, 0.0000°E)
Time: 17:20:04
(UTC+00:00)
Language:

APRIZESAT 10 - Orbit

View from above orbital plane
View from above orbital plane
View from above satellite
View from above satellite

Ground track
Ground track

The orbit data is extracted from the following two-line orbital elements,

1 40019U 14033K   21337.01699244  .00000121  00000-0  28553-4 0  9997
2 40019  97.7454 142.7139 0084592 162.5246 197.8902 14.67152204399170
Epoch (UTC): 03 December 2021 00:24:28
Eccentricity: 0.0084592
inclination: 97.7454°
perigee height: 610 km
apogee height: 730 km
right ascension of ascending node: 142.7139°
argument of perigee: 162.5246°
revolutions per day: 14.67152204
mean anomaly at epoch: 197.8902°
orbit number at epoch: 39917

The dashed part of the orbit path shows where the satellite is in the earth's shadow,  

DLR